• In Hungary
  • List of Countries
  • For 7 days
  • Water Temperature
  • Satellite Maps
  • Weather Map
  • News
  • Weather Widgets
  • user-avatar
    Login

    Hourly Weather Chodov

    Today, 22 September, Saturday

    Time Temperature Precipitation Wind Pressure Humidity
    00:00 +10°C° 0 mm 4 mps 723 mmHg 81%
    01:00 +10°C° 0 mm 3 mps 724 mmHg 81%
    02:00 +9°C° 0 mm 3 mps 724 mmHg 82%
    03:00 +8°C° 0 mm 4 mps 725 mmHg 82%
    04:00 +8°C° 0 mm 4 mps 725 mmHg 83%
    05:00 +8°C° 0 mm 4 mps 725 mmHg 82%
    06:00 +8°C° 0 mm 4 mps 725 mmHg 82%
    07:00 +8°C° 0 mm 4 mps 726 mmHg 82%
    08:00 +10°C° 0 mm 4 mps 726 mmHg 75%
    09:00 +12°C° 0 mm 5 mps 726 mmHg 68%
    10:00 +13°C° 0 mm 5 mps 726 mmHg 61%
    11:00 +14°C° 0 mm 5 mps 726 mmHg 57%
    12:00 +15°C° 0 mm 5 mps 726 mmHg 52%
    13:00 +16°C° 0 mm 5 mps 726 mmHg 48%
    14:00 +15°C° 0 mm 4 mps 725 mmHg 49%
    15:00 +15°C° 0 mm 4 mps 725 mmHg 50%
    16:00 +15°C° 0 mm 4 mps 725 mmHg 51%
    17:00 +14°C° 0.1 mm 3 mps 725 mmHg 58%
    18:00 +13°C° 0.1 mm 3 mps 724 mmHg 64%
    19:00 +12°C° 0.1 mm 3 mps 724 mmHg 70%
    20:00 +12°C° 0.1 mm 2 mps 725 mmHg 72%
    21:00 +12°C° 0.1 mm 2 mps 725 mmHg 74%
    22:00 +12°C° 0.1 mm 2 mps 725 mmHg 76%
    23:00 +10°C° 0.1 mm 2 mps 725 mmHg 78%

    Tomorrow, 23 September, Sunday

    Time Temperature Precipitation Wind Pressure Humidity
    00:00 +10°C° 0.1 mm 3 mps 725 mmHg 80%
    01:00 +10°C° 0.1 mm 3 mps 724 mmHg 82%
    02:00 +10°C° 0.3 mm 3 mps 724 mmHg 85%
    03:00 +9°C° 0.3 mm 3 mps 724 mmHg 87%
    04:00 +9°C° 0.3 mm 3 mps 723 mmHg 89%
    05:00 +9°C° 0.4 mm 3 mps 723 mmHg 90%
    06:00 +9°C° 0.4 mm 3 mps 722 mmHg 91%
    07:00 +9°C° 0.4 mm 2 mps 722 mmHg 92%
    08:00 +10°C° 0.5 mm 2 mps 722 mmHg 92%
    09:00 +10°C° 0.5 mm 2 mps 721 mmHg 92%
    10:00 +12°C° 0.5 mm 2 mps 721 mmHg 92%
    11:00 +11°C° 1.4 mm 3 mps 720 mmHg 93%
    12:00 +12°C° 1.4 mm 3 mps 719 mmHg 94%
    13:00 +12°C° 1.4 mm 3 mps 719 mmHg 95%
    14:00 +14°C° 1.1 mm 4 mps 718 mmHg 93%
    15:00 +15°C° 1.1 mm 5 mps 717 mmHg 92%
    16:00 +17°C° 1.1 mm 5 mps 715 mmHg 90%
    17:00 +16°C° 1.4 mm 5 mps 715 mmHg 90%
    18:00 +15°C° 1.4 mm 5 mps 715 mmHg 91%
    19:00 +14°C° 1.4 mm 5 mps 715 mmHg 91%
    20:00 +12°C° 3.2 mm 5 mps 715 mmHg 92%
    21:00 +10°C° 3.2 mm 5 mps 716 mmHg 92%
    22:00 +8°C° 3.2 mm 4 mps 717 mmHg 93%
    23:00 +8°C° 0.2 mm 5 mps 719 mmHg 92%

    Day after tomorrow, 24 September, Monday

    Time Temperature Precipitation Wind Pressure Humidity
    00:00 +7°C° 0.2 mm 5 mps 720 mmHg 92%
    01:00 +6°C° 0.2 mm 5 mps 722 mmHg 91%
    02:00 +6°C° 0.1 mm 5 mps 723 mmHg 91%
    03:00 +6°C° 0.1 mm 5 mps 725 mmHg 90%
    04:00 +6°C° 0.1 mm 5 mps 726 mmHg 90%
    05:00 +6°C° 0.1 mm 5 mps 727 mmHg 90%
    06:00 +6°C° 0.1 mm 5 mps 727 mmHg 89%
    07:00 +6°C° 0.1 mm 5 mps 728 mmHg 89%
    08:00 +5°C° 0.1 mm 6 mps 729 mmHg 83%
    09:00 +7°C° 0.1 mm 6 mps 730 mmHg 78%
    10:00 +8°C° 0.1 mm 7 mps 730 mmHg 73%
    11:00 +9°C° 0 mm 7 mps 731 mmHg 65%
    12:00 +10°C° 0 mm 7 mps 731 mmHg 58%
    13:00 +11°C° 0 mm 7 mps 731 mmHg 50%
    14:00 +10°C° 0.1 mm 6 mps 731 mmHg 54%
    15:00 +10°C° 0.1 mm 6 mps 731 mmHg 57%
    16:00 +9°C° 0.1 mm 6 mps 731 mmHg 61%
    17:00 +8°C° 0.1 mm 5 mps 732 mmHg 67%
    18:00 +7°C° 0.1 mm 4 mps 732 mmHg 73%
    19:00 +6°C° 0.1 mm 4 mps 732 mmHg 79%
    20:00 +5°C° 0 mm 3 mps 733 mmHg 81%
    21:00 +5°C° 0 mm 3 mps 733 mmHg 83%
    22:00 +4°C° 0 mm 3 mps 734 mmHg 85%
    23:00 +4°C° 0 mm 3 mps 734 mmHg 85%

    25 September, Tuesday

    Time Temperature Precipitation Wind Pressure Humidity
    00:00 +3°C° 0 mm 3 mps 734 mmHg 86%
    01:00 +3°C° 0 mm 3 mps 735 mmHg 86%
    02:00 +4°C° 0 mm 2 mps 735 mmHg 88%
    03:00 +3°C° 0 mm 2 mps 735 mmHg 90%
    04:00 +3°C° 0 mm 2 mps 735 mmHg 92%
    05:00 +3°C° 0 mm 2 mps 736 mmHg 91%
    06:00 +4°C° 0 mm 1 mps 736 mmHg 90%
    07:00 +4°C° 0 mm 1 mps 737 mmHg 90%
    08:00 +6°C° 0 mm 1 mps 737 mmHg 79%
    09:00 +7°C° 0 mm 2 mps 738 mmHg 69%
    10:00 +9°C° 0 mm 2 mps 738 mmHg 58%
    11:00 +10°C° 0 mm 2 mps 738 mmHg 53%
    12:00 +12°C° 0 mm 2 mps 738 mmHg 49%
    13:00 +13°C° 0 mm 2 mps 738 mmHg 44%
    14:00 +12°C° 0 mm 2 mps 738 mmHg 45%
    15:00 +12°C° 0 mm 2 mps 737 mmHg 46%
    16:00 +12°C° 0 mm 2 mps 737 mmHg 47%
    17:00 +10°C° 0 mm 1 mps 737 mmHg 54%
    18:00 +8°C° 0 mm 1 mps 737 mmHg 61%
    19:00 +7°C° 0 mm 1 mps 737 mmHg 68%
    20:00 +6°C° 0 mm 1 mps 737 mmHg 70%
    21:00 +6°C° 0 mm 1 mps 737 mmHg 72%
    22:00 +5°C° 0 mm 1 mps 737 mmHg 74%
    23:00 +5°C° 0 mm 1 mps 737 mmHg 75%

    26 September, Wednesday

    Time Temperature Precipitation Wind Pressure Humidity
    00:00 +5°C° 0 mm 1 mps 737 mmHg 76%
    01:00 +4°C° 0 mm 2 mps 737 mmHg 77%
    02:00 +3°C° 0 mm 2 mps 736 mmHg 78%
    03:00 +3°C° 0 mm 2 mps 736 mmHg 78%
    04:00 +3°C° 0 mm 2 mps 736 mmHg 79%
    05:00 +4°C° 0 mm 1 mps 735 mmHg 78%
    06:00 +4°C° 0 mm 1 mps 735 mmHg 77%
    07:00 +5°C° 0 mm 1 mps 735 mmHg 76%
    08:00 +7°C° 0 mm 1 mps 735 mmHg 67%
    09:00 +9°C° 0 mm 2 mps 735 mmHg 58%
    10:00 +12°C° 0 mm 2 mps 735 mmHg 49%
    11:00 +14°C° 0 mm 2 mps 735 mmHg 45%
    12:00 +15°C° 0 mm 2 mps 734 mmHg 42%
    13:00 +16°C° 0 mm 2 mps 734 mmHg 38%
    14:00 +17°C° 0 mm 2 mps 733 mmHg 41%
    15:00 +17°C° 0 mm 2 mps 733 mmHg 43%
    16:00 +17°C° 0 mm 2 mps 733 mmHg 46%
    17:00 +15°C° 0 mm 2 mps 732 mmHg 53%
    18:00 +12°C° 0 mm 2 mps 732 mmHg 60%
    19:00 +9°C° 0 mm 2 mps 732 mmHg 67%
    20:00 +9°C° 0 mm 2 mps 732 mmHg 69%
    21:00 +8°C° 0 mm 2 mps 732 mmHg 71%
    22:00 +8°C° 0 mm 2 mps 732 mmHg 73%
    23:00 +7°C° 0 mm 2 mps 732 mmHg 74%

    27 September, Thursday

    Time Temperature Precipitation Wind Pressure Humidity
    00:00 +7°C° 0 mm 2 mps 732 mmHg 76%
    01:00 +7°C° 0 mm 2 mps 732 mmHg 77%
    02:00 +6°C° 0 mm 2 mps 732 mmHg 78%
    03:00 +6°C° 0 mm 2 mps 731 mmHg 78%
    04:00 +6°C° 0 mm 2 mps 731 mmHg 79%
    05:00 +6°C° 0 mm 2 mps 731 mmHg 77%
    06:00 +6°C° 0 mm 2 mps 731 mmHg 76%
    07:00 +7°C° 0 mm 2 mps 731 mmHg 74%
    08:00 +9°C° 0 mm 2 mps 731 mmHg 66%
    09:00 +12°C° 0 mm 3 mps 731 mmHg 57%
    10:00 +14°C° 0 mm 3 mps 731 mmHg 49%
    11:00 +16°C° 0 mm 3 mps 731 mmHg 46%
    12:00 +18°C° 0 mm 3 mps 731 mmHg 44%
    13:00 +19°C° 0 mm 3 mps 731 mmHg 41%
    14:00 +19°C° 0 mm 3 mps 730 mmHg 43%
    15:00 +19°C° 0 mm 3 mps 730 mmHg 46%
    16:00 +18°C° 0 mm 3 mps 729 mmHg 48%
    17:00 +17°C° 0 mm 3 mps 729 mmHg 55%
    18:00 +15°C° 0 mm 2 mps 729 mmHg 62%
    19:00 +13°C° 0 mm 2 mps 728 mmHg 69%
    20:00 +12°C° 0 mm 2 mps 728 mmHg 72%
    21:00 +12°C° 0 mm 2 mps 729 mmHg 75%
    22:00 +12°C° 0 mm 2 mps 729 mmHg 78%
    23:00 +11°C° 0 mm 1 mps 728 mmHg 81%
    Show more